Location: Unspecified
(0.0000°N, 0.0000°E)
Time: 12:57:34
(UTC+00:00)

Tiros 1 despin weight - Pass Details

Date: 22 December 2018
Orbit: 594 x 642 km, 48.2° (Epoch: 15 July)

Event Time Altitude Azimuth Distance (km) Brightness Sun altitude
Exits shadow 05:09:41 - 348° (NNW) 2,927 ? -11.2°
Rises 05:09:44 0° 349° (NNW) 2,907 ? -11.2°
Reaches altitude 10° 05:12:44 10° 8° (N) 2,010 ? -10.5°
Maximum altitude 05:15:48 17° 50° (NE) 1,584 ? -9.8°
Drops below altitude 10° 05:18:54 10° 92° (E) 2,025 ? -9.1°
Sets 05:21:55 0° 111° (ESE) 2,938 ? -8.4°
